Retour au catalogue

STARLINK-11229

ActifCommunicationsVLEO
NORAD 60908·PAYLOAD·🇺🇸 United States

Lancé Aug 31, 2024 depuis Cape Canaveral Space Force Station

Loading…

Prochains Passages (prochaines 24 heures)

TLE

FraisSource: CelesTrak SupGP

Époque: Sep 14, 2026, 20:39 UTC

1 60908C 24154F   26257.86090278  .00051545  00000+0  42460-3 0  2576
2 60908  53.1574 278.8552 0001051  98.9844 274.2068 15.69683483    19

Suivez STARLINK-11229 en temps réel avec AllMySat

Download on the App Store